Weather History for Maple Lake, MN

Change the Weather History Date:

Monday, July 22, 2013

  Actual Average (KSTC) Record (KSTC)
Temperature  
Mean Temperature 73 °F 70 °F  
Max Temperature 83 °F 83 °F 107 °F (1934)
Min Temperature 64 °F 59 °F 42 °F (1947)
Degree Days  
Heating Degree Days 0 0  
Month to date heating degree days 13  
Since 1 June heating degree days 91  
Since 1 July heating degree days 13  
Cooling Degree Days 8 6  
Month to date cooling degree days 131  
Year to date cooling degree days 251  
Since 1 June cooling degree days 226  
Growing Degree Days 23 (Base 50)    
Moisture  
Dew Point 65 °F    
Average Humidity 76    
Maximum Humidity 93    
Minimum Humidity 53    
Precipitation  
Precipitation 0.00 in 0.11 in 2.29 in (1972)
Month to date precipitation 2.39  
Year to date precipitation 14.87  
Snow  
Snow 0.00 in 0.00 in 0.00 in ()
Month to date snowfall 0.0  
Since 1 June snowfall 0.0  
Since 1 July snowfall 0.0  
Snow Depth -    
Sea Level Pressure  
Sea Level Pressure 29.76 in    
Wind  
Wind Speed 7 mph (WSW)    
Max Wind Speed 16 mph    
Max Gust Speed 21 mph    
Visibility 10 miles    
Events      
T = Trace of Precipitation, MM = Missing Value Source: NWS Daily Summary

Daily Weather History Graph

Daily Weather History Graph

Search for Another Location

Airport:

Trip Planner

Search our weather history database for the weather conditions in past years. The results will help you decide how hot, cold, wet, or windy it might be!

Date:

Astronomy

Jul. 22, 2013 Rise Set
Actual Time 5:49 AM CDT 8:54 PM CDT
Civil Twilight 5:14 AM CDT 9:29 PM CDT
Nautical Twilight 4:29 AM CDT 10:14 PM CDT
Astronomical Twilight 3:34 AM CDT 11:08 PM CDT
Moon 8:35 PM CDT (7/22) 5:50 AM CDT (7/22)
Length of Visible Light 16h 14m
Length of Day
15h 04m
Full, 100% of the Moon is Illuminated
Jul 22
Full
Jul 22
Full
Jul 29
Last Quarter
Aug 6
New
Aug 14
First Quarter

Hourly Weather History & Observations

Time (CDT) Temp. Heat Index Dew Point Humidity Pressure Visibility Wind Dir Wind Speed Gust Speed Precip Events Conditions
12:16 AM 70.9 °F - 68.7 °F 93% 29.81 in 10.0 mi SSE 4.6 mph - N/A   Clear
12:36 AM 70.7 °F - 68.2 °F 92% 29.80 in 10.0 mi SSE 5.8 mph - N/A   Clear
12:56 AM 70.5 °F - 67.8 °F 91% 29.80 in 10.0 mi SSE 3.5 mph - N/A   Clear
1:16 AM 70.2 °F - 67.6 °F 92% 29.77 in 10.0 mi SE 5.8 mph - N/A   Clear
1:37 AM 69.8 °F - 67.3 °F 92% 29.78 in 10.0 mi SSE 3.5 mph - N/A   Clear
1:56 AM 69.8 °F - 67.1 °F 91% 29.78 in 10.0 mi SSE 4.6 mph - N/A   Clear
2:16 AM 69.6 °F - 67.1 °F 92% 29.77 in 10.0 mi SSE 4.6 mph - N/A   Clear
2:36 AM 69.1 °F - 66.7 °F 92% 29.76 in 10.0 mi SSE 4.6 mph - N/A   Clear
2:56 AM 69.1 °F - 66.6 °F 92% 29.76 in 10.0 mi SSE 5.8 mph - N/A   Clear
3:16 AM 68.9 °F - 66.2 °F 91% 29.75 in 10.0 mi SSE 4.6 mph - N/A   Clear
3:36 AM 68.9 °F - 66.2 °F 91% 29.75 in 10.0 mi South 6.9 mph - N/A   Clear
3:56 AM 68.7 °F - 66.4 °F 92% 29.75 in 10.0 mi South 5.8 mph - N/A   Clear
4:17 AM 68.5 °F - 66.2 °F 92% 29.74 in 10.0 mi South 4.6 mph - N/A   Clear
4:36 AM 68.9 °F - 66.6 °F 92% 29.75 in 10.0 mi South 4.6 mph - N/A   Clear
4:56 AM 68.9 °F - 66.4 °F 92% 29.75 in 10.0 mi South 4.6 mph - N/A   Clear
5:16 AM 68.9 °F - 66.4 °F 92% 29.73 in 10.0 mi SSE 5.8 mph - N/A   Clear
5:36 AM 69.3 °F - 66.6 °F 91% 29.74 in 10.0 mi South 8.1 mph - N/A   Clear
5:56 AM 69.4 °F - 66.7 °F 91% 29.74 in 10.0 mi South 3.5 mph - N/A   Mostly Cloudy
6:16 AM 69.6 °F - 66.7 °F 91% 29.73 in 10.0 mi South 5.8 mph - N/A   Scattered Clouds
6:36 AM 69.3 °F - 66.7 °F 92% 29.73 in 10.0 mi South 4.6 mph - N/A   Clear
6:56 AM 69.3 °F - 67.1 °F 93% 29.73 in 10.0 mi South 5.8 mph - N/A   Clear
7:16 AM 69.4 °F - 67.1 °F 92% 29.73 in 10.0 mi South 5.8 mph - N/A   Scattered Clouds
7:36 AM 69.8 °F - 67.3 °F 92% 29.72 in 10.0 mi SSE 4.6 mph - N/A   Scattered Clouds
7:56 AM 69.8 °F - 67.6 °F 93% 29.72 in 10.0 mi South 3.5 mph - N/A   Scattered Clouds
8:16 AM 70.3 °F - 68.0 °F 92% 29.72 in 10.0 mi South 6.9 mph - N/A   Scattered Clouds
8:36 AM 72.1 °F - 68.9 °F 89% 29.71 in 10.0 mi South 6.9 mph - N/A   Scattered Clouds
8:56 AM 72.5 °F - 69.1 °F 89% 29.70 in 10.0 mi SSW 3.5 mph - N/A   Mostly Cloudy
9:16 AM 73.4 °F - 69.6 °F 88% 29.70 in 10.0 mi SSW 3.5 mph - N/A   Mostly Cloudy
9:37 AM 74.1 °F - 70.2 °F 87% 29.70 in 10.0 mi SSW 3.5 mph - N/A   Mostly Cloudy
9:56 AM 75.6 °F - 70.2 °F 83% 29.70 in 10.0 mi SW 4.6 mph - N/A   Scattered Clouds
10:16 AM 76.3 °F - 70.3 °F 82% 29.71 in 10.0 mi SW 8.1 mph - N/A   Scattered Clouds
10:37 AM 76.6 °F - 70.7 °F 82% 29.70 in 10.0 mi SW 4.6 mph - N/A   Mostly Cloudy
10:56 AM 77.2 °F - 70.7 °F 80% 29.70 in 10.0 mi SW 3.5 mph - N/A   Mostly Cloudy
11:16 AM 78.3 °F - 70.5 °F 77% 29.71 in 10.0 mi West 4.6 mph - N/A   Scattered Clouds
11:36 AM 78.3 °F - 70.5 °F 77% 29.71 in 10.0 mi WNW 6.9 mph - N/A   Mostly Cloudy
11:56 AM 79.7 °F - 71.1 °F 75% 29.71 in 10.0 mi WNW 8.1 mph - N/A   Mostly Cloudy
12:16 PM 79.0 °F - 70.9 °F 76% 29.72 in 10.0 mi West 6.9 mph - N/A   Mostly Cloudy
12:36 PM 81.0 °F 85.2 °F 72.0 °F 74% 29.71 in 10.0 mi WNW 9.2 mph - N/A   Mostly Cloudy
12:56 PM 81.3 °F 85.8 °F 71.8 °F 73% 29.71 in 10.0 mi NW 5.8 mph - N/A   Mostly Cloudy
1:17 PM 81.3 °F 85.2 °F 70.9 °F 70% 29.71 in 10.0 mi NW 12.7 mph - N/A   Mostly Cloudy
1:36 PM 82.4 °F 85.8 °F 69.3 °F 64% 29.72 in 10.0 mi WNW 11.5 mph 18.4 mph N/A   Scattered Clouds
1:56 PM 82.6 °F 85.3 °F 67.5 °F 60% 29.72 in 10.0 mi NW 11.5 mph 18.4 mph N/A   Clear
2:16 PM 82.6 °F 84.7 °F 66.0 °F 57% 29.73 in 10.0 mi NW 11.5 mph 17.3 mph N/A   Clear
2:36 PM 82.6 °F 84.5 °F 65.3 °F 56% 29.73 in 10.0 mi WNW 10.4 mph - N/A   Clear
2:56 PM 82.6 °F 84.5 °F 65.3 °F 56% 29.73 in 10.0 mi West 11.5 mph 19.6 mph N/A   Clear
3:16 PM 82.4 °F 83.9 °F 64.0 °F 54% 29.73 in 10.0 mi WNW 13.8 mph - N/A   Clear
3:36 PM 82.4 °F 83.7 °F 63.7 °F 53% 29.74 in 10.0 mi WNW 13.8 mph 18.4 mph N/A   Clear
3:56 PM 81.9 °F 83.5 °F 64.8 °F 56% 29.74 in 10.0 mi WNW 11.5 mph 20.7 mph N/A   Scattered Clouds
4:16 PM 81.7 °F 83.0 °F 63.7 °F 54% 29.74 in 10.0 mi WNW 13.8 mph 17.3 mph N/A   Scattered Clouds
4:36 PM 81.5 °F 83.1 °F 64.4 °F 56% 29.74 in 10.0 mi WNW 13.8 mph 19.6 mph N/A   Scattered Clouds
4:56 PM 80.6 °F 81.9 °F 63.0 °F 55% 29.75 in 10.0 mi NW 13.8 mph 20.7 mph N/A   Scattered Clouds
5:16 PM 79.9 °F - 63.3 °F 57% 29.75 in 10.0 mi WNW 11.5 mph 18.4 mph N/A   Scattered Clouds
5:36 PM 79.2 °F - 62.4 °F 56% 29.76 in 10.0 mi NW 15.0 mph 19.6 mph N/A   Scattered Clouds
5:56 PM 78.8 °F - 62.1 °F 56% 29.76 in 10.0 mi NW 15.0 mph 19.6 mph N/A   Scattered Clouds
6:16 PM 78.3 °F - 61.2 °F 56% 29.76 in 10.0 mi NW 12.7 mph 20.7 mph N/A   Scattered Clouds
6:36 PM 76.5 °F - 60.3 °F 57% 29.77 in 10.0 mi NNW 15.0 mph 20.7 mph N/A   Scattered Clouds
6:56 PM 75.6 °F - 59.5 °F 57% 29.78 in 10.0 mi NW 11.5 mph 20.7 mph N/A   Clear
7:16 PM 75.6 °F - 59.5 °F 57% 29.79 in 10.0 mi NNW 16.1 mph 20.7 mph N/A   Mostly Cloudy
7:36 PM 74.1 °F - 58.6 °F 58% 29.80 in 10.0 mi NW 12.7 mph 18.4 mph N/A   Scattered Clouds
7:56 PM 72.5 °F - 58.3 °F 61% 29.80 in 10.0 mi NW 9.2 mph 16.1 mph N/A   Clear
8:16 PM 71.2 °F - 58.3 °F 64% 29.81 in 10.0 mi NNW 10.4 mph - N/A   Clear
8:36 PM 70.2 °F - 57.4 °F 64% 29.82 in 10.0 mi NNW 5.8 mph - N/A   Scattered Clouds
8:56 PM 68.9 °F - 58.1 °F 68% 29.83 in 10.0 mi NW 4.6 mph - N/A   Scattered Clouds
9:16 PM 69.8 °F - 57.2 °F 64% 29.84 in 10.0 mi NNW 8.1 mph - N/A   Mostly Cloudy
9:36 PM 68.5 °F - 57.0 °F 67% 29.85 in 10.0 mi NNW 6.9 mph - N/A   Scattered Clouds
9:56 PM 68.0 °F - 57.4 °F 69% 29.85 in 10.0 mi NNW 4.6 mph - N/A   Scattered Clouds
10:16 PM 67.6 °F - 57.9 °F 71% 29.86 in 10.0 mi NNW 4.6 mph - N/A   Mostly Cloudy
10:36 PM 66.6 °F - 58.1 °F 74% 29.87 in 10.0 mi NW 4.6 mph - N/A   Mostly Cloudy
10:56 PM 66.9 °F - 57.9 °F 73% 29.87 in 10.0 mi NNW 5.8 mph - N/A   Mostly Cloudy
11:16 PM 65.7 °F - 57.7 °F 76% 29.88 in 10.0 mi NW 3.5 mph - N/A   Scattered Clouds
11:36 PM 64.4 °F - 58.1 °F 80% 29.89 in 10.0 mi NW 4.6 mph - N/A   Scattered Clouds
11:56 PM 64.6 °F - 58.3 °F 80% 29.90 in 10.0 mi WNW 3.5 mph - N/A   Mostly Cloudy